Harlingen, TX

4:32 AM CDT on April 26, 2017 (GMT -0500)
Valley International

Weather History for KHRL - October, 2013

Change the Weather History Date:

Saturday, October 5, 2013

  Actual Average Record
Temperature  
Mean Temperature 82 °F 78 °F  
Max Temperature 93 °F 88 °F 100 °F (1937)
Min Temperature 71 °F 68 °F 53 °F (1961)
Degree Days  
Heating Degree Days 0 0  
Month to date heating degree days 0 0  
Since 1 July heating degree days 0 0  
Cooling Degree Days 17 13  
Month to date cooling degree days 91 68  
Year to date cooling degree days 3606 3497  
Growing Degree Days 32 (Base 50)    
Moisture  
Dew Point 72 °F    
Average Humidity 73    
Maximum Humidity 100    
Minimum Humidity 46    
Precipitation  
Precipitation 0.00 in 0.08 in 4.20 in (1970)
Month to date precipitation T 0.49  
Year to date precipitation 21.04 19.92  
Sea Level Pressure  
Sea Level Pressure 29.86 in    
Wind  
Wind Speed 6 mph (SE)    
Max Wind Speed 16 mph    
Max Gust Speed 23 mph    
Visibility 10 miles    
Events      
T = Trace of Precipitation, MM = Missing Value Source: NWS Daily Summary

Daily Weather History Graph

Daily Weather History Graph

Search for Another Location

Airport or City:

Trip Planner

Search our weather history database for the weather conditions in past years. The results will help you decide how hot, cold, wet, or windy it might be!

Date:

Astronomy

Oct. 05, 2013 Rise Set
Actual Time 7:24 AM CDT 7:12 PM CDT
Civil Twilight 7:01 AM CDT 7:35 PM CDT
Nautical Twilight 6:35 AM CDT 8:02 PM CDT
Astronomical Twilight 6:08 AM CDT 8:29 PM CDT
Moon 7:58 AM CDT (10/5) 7:41 PM CDT (10/5)
Length of Visible Light 12h 33m
Length of Day
11h 47m
New Moon, 1% of the Moon is Illuminated
Oct 5
New Moon
Oct 11
First Quarter
Oct 18
Full
Oct 26
Last Quarter
Nov 3
New

Hourly Weather History & Observations

Time (CDT) Temp. Heat Index Dew Point Humidity Pressure Visibility Wind Dir Wind Speed Gust Speed Precip Events Conditions
12:52 AM 73.0 °F - 70.0 °F 90% 29.88 in 10.0 mi SSE 4.6 mph - N/A   Clear
1:52 AM 72.0 °F - 70.0 °F 93% 29.87 in 10.0 mi Calm Calm - N/A   Clear
2:52 AM 71.1 °F - 70.0 °F 96% 29.86 in 10.0 mi ESE 4.6 mph - N/A   Clear
3:52 AM 73.0 °F - 71.1 °F 93% 29.85 in 10.0 mi SE 6.9 mph - N/A   Clear
4:52 AM 72.0 °F - 71.1 °F 97% 29.84 in 10.0 mi East 4.6 mph - 0.01 in   Clear
5:52 AM 73.0 °F - 71.1 °F 93% 29.85 in 10.0 mi ENE 4.6 mph - N/A   Clear
6:52 AM 73.9 °F - 73.0 °F 97% 29.86 in 10.0 mi Calm Calm - N/A   Overcast
7:11 AM 73.4 °F - 71.6 °F 94% 29.86 in 10.0 mi NNW 3.5 mph - N/A   Overcast
7:39 AM 75.2 °F - 73.4 °F 94% 29.87 in 10.0 mi Calm Calm - N/A   Overcast
7:52 AM 75.9 °F - 73.9 °F 94% 29.87 in 10.0 mi Calm Calm - N/A   Overcast
8:52 AM 78.1 °F - 75.9 °F 93% 29.88 in 10.0 mi Calm Calm - N/A   Overcast
9:52 AM 82.0 °F 88.6 °F 75.0 °F 79% 29.89 in 10.0 mi SSW 3.5 mph - N/A   Scattered Clouds
10:52 AM 86.0 °F 92.2 °F 72.0 °F 63% 29.90 in 10.0 mi SSE 9.2 mph - N/A   Partly Cloudy
11:52 AM 88.0 °F 93.8 °F 71.1 °F 57% 29.89 in 10.0 mi South 6.9 mph - N/A   Clear
12:52 PM 89.1 °F 94.1 °F 70.0 °F 53% 29.87 in 10.0 mi South 9.2 mph - N/A   Clear
1:52 PM 91.0 °F 97.6 °F 71.1 °F 52% 29.85 in 10.0 mi SSE 5.8 mph - N/A   Clear
2:52 PM 91.9 °F 96.9 °F 69.1 °F 47% 29.82 in 10.0 mi South 12.7 mph 17.3 mph N/A   Clear
3:52 PM 93.0 °F 97.9 °F 69.1 °F 45% 29.81 in 10.0 mi South 6.9 mph - N/A   Partly Cloudy
4:52 PM 90.0 °F 94.5 °F 69.1 °F 50% 29.81 in 10.0 mi SSE 12.7 mph - N/A   Clear
5:52 PM 89.1 °F 93.7 °F 69.1 °F 52% 29.81 in 10.0 mi SSE 10.4 mph - N/A   Clear
6:52 PM 84.9 °F 90.1 °F 71.1 °F 63% 29.83 in 10.0 mi East 15.0 mph - N/A   Clear
7:52 PM 81.0 °F 86.2 °F 73.9 °F 79% 29.86 in 10.0 mi ESE 9.2 mph - N/A   Clear
8:52 PM 79.0 °F - 73.9 °F 84% 29.89 in 10.0 mi ESE 8.1 mph - N/A   Clear
9:52 PM 77.0 °F - 73.0 °F 88% 29.91 in 10.0 mi ESE 5.8 mph - N/A   Clear
10:52 PM 75.0 °F - 72.0 °F 90% 29.91 in 10.0 mi North 3.5 mph - N/A   Clear
11:52 PM 75.0 °F - 72.0 °F 90% 29.91 in 10.0 mi SSE 5.8 mph - N/A   Clear